| time (UTC) | temp F | wind direction | speed MPH | gust MPH | rain 1hr in | rain 24hr in | rain mn in | humidity % | barometer mb |
| 20260503185004 | 64 | 143 | 1.0 | 3.0 | 0.00 | 0.00 | 0.00 | 38 | 998.1 |
| 20260503184504 | 64 | 257 | 3.0 | 5.0 | 0.00 | 0.00 | 0.00 | 39 | 998.4 |
| 20260503184004 | 64 | 288 | 7.0 | 10.0 | 0.00 | 0.00 | 0.00 | 38 | 998.5 |
| 20260503183505 | 63 | 256 | 6.0 | 8.0 | 0.00 | 0.00 | 0.00 | 39 | 998.4 |
| 20260503183004 | 62 | 158 | 3.0 | 5.0 | 0.00 | 0.00 | 0.00 | 40 | 998.4 |
| 20260503182006 | 62 | 159 | 3.0 | 7.0 | 0.00 | 0.00 | 0.00 | 39 | 998.5 |
| 20260503181505 | 62 | 267 | 5.0 | 8.0 | 0.00 | 0.00 | 0.00 | 40 | 998.7 |
| 20260503180504 | 62 | 274 | 4.0 | 6.0 | 0.00 | 0.00 | 0.00 | 40 | 998.7 |
| 20260503180005 | 61 | 242 | 5.0 | 9.0 | 0.00 | 0.00 | 0.00 | 40 | 998.6 |
| 20260503175005 | 61 | 269 | 6.0 | 8.0 | 0.00 | 0.00 | 0.00 | 39 | 998.9 |
| 20260503174505 | 61 | 293 | 8.0 | 9.0 | 0.00 | 0.00 | 0.00 | 38 | 999.2 |
| 20260503173504 | 62 | 257 | 3.0 | 6.0 | 0.00 | 0.00 | 0.00 | 38 | 999.1 |
| 20260503173005 | 62 | 109 | 2.0 | 3.0 | 0.00 | 0.00 | 0.00 | 38 | 999.1 |
| 20260503172504 | 62 | 210 | 3.0 | 5.0 | 0.00 | 0.00 | 0.00 | 38 | 999.1 |
| 20260503172004 | 62 | 184 | 1.0 | 1.0 | 0.00 | 0.00 | 0.00 | 39 | 999.3 |
| 20260503171504 | 60 | 285 | 3.0 | 3.0 | 0.00 | 0.00 | 0.00 | 40 | 999.5 |
| 20260503171004 | 61 | 260 | 5.0 | 8.0 | 0.00 | 0.00 | 0.00 | 39 | 999.5 |
| 20260503170504 | 60 | 150 | 2.0 | 2.0 | 0.00 | 0.00 | 0.00 | 39 | 999.6 |
| 20260503151006 | 59 | 322 | 4.0 | 5.0 | 0.00 | 0.00 | 0.00 | 42 | 1000.0 |
| 20260503150505 | 58 | 284 | 7.0 | 8.0 | 0.00 | 0.00 | 0.00 | 42 | 1000.0 |
| 20260503131004 | 49 | 267 | 6.0 | 13.0 | 0.00 | 0.00 | 0.00 | 51 | 1000.6 |
| 20260503130504 | 48 | 229 | 6.0 | 8.0 | 0.00 | 0.00 | 0.00 | 51 | 1000.6 |
| 20260503110504 | 38 | 145 | 0.0 | 0.0 | 0.00 | 0.00 | 0.00 | 66 | 1000.8 |
| 20260503090504 | 36 | 188 | 0.0 | 0.0 | 0.00 | 0.00 | 0.00 | 70 | 1001.1 |
| 20260503081005 | 38 | 186 | 0.0 | 0.0 | 0.00 | 0.00 | 0.00 | 67 | 1001.4 |
| 20260503080505 | 38 | 184 | 0.0 | 0.0 | 0.00 | 0.00 | 0.00 | 67 | 1001.7 |
| 20260503072505 | 38 | 192 | 0.0 | 0.0 | 0.00 | 0.00 | 0.00 | 67 | 1001.6 |
| 20260503071504 | 38 | 192 | 0.0 | 0.0 | 0.00 | 0.00 | 0.00 | 67 | 1001.5 |
| 20260503071005 | 38 | 192 | 0.0 | 0.0 | 0.00 | 0.00 | 0.00 | 67 | 1001.6 |
| 20260503070505 | 38 | 192 | 0.0 | 1.0 | 0.00 | 0.00 | 0.00 | 67 | 1001.6 |
| 20260503055004 | 39 | 185 | 0.0 | 0.0 | 0.00 | 0.00 | 0.00 | 67 | 1002.0 |
| 20260503054505 | 39 | 184 | 0.0 | 0.0 | 0.00 | 0.00 | 0.00 | 66 | 1002.0 |
| 20260503053005 | 40 | 184 | 0.0 | 0.0 | 0.00 | 0.00 | 0.00 | 65 | 1002.1 |
| 20260503052004 | 40 | 170 | 0.0 | 0.0 | 0.00 | 0.00 | 0.00 | 64 | 1002.2 |
| 20260503051004 | 41 | 178 | 0.0 | 1.0 | 0.00 | 0.00 | 0.00 | 63 | 1002.2 |
| 20260503050504 | 41 | 195 | 0.0 | 1.0 | 0.00 | 0.00 | 0.00 | 62 | 1002.4 |
| 20260503050005 | 41 | 191 | 1.0 | 1.0 | 0.00 | 0.00 | 0.00 | 62 | 1002.4 |
| 20260503045504 | 41 | 162 | 0.0 | 0.0 | 0.00 | 0.00 | 0.00 | 63 | 1002.1 |
| 20260503045004 | 41 | 168 | 0.0 | 0.0 | 0.00 | 0.00 | 0.00 | 63 | 1002.4 |
| 20260503044504 | 41 | 176 | 0.0 | 0.0 | 0.00 | 0.00 | 0.00 | 63 | 1002.3 |
| 20260503043505 | 41 | 172 | 1.0 | 1.0 | 0.00 | 0.00 | 0.00 | 62 | 1002.2 |
| 20260503042504 | 41 | 179 | 1.0 | 1.0 | 0.00 | 0.00 | 0.00 | 62 | 1002.4 |
| 20260503042004 | 41 | 169 | 1.0 | 1.0 | 0.00 | 0.00 | 0.00 | 62 | 1002.3 |
| 20260503041505 | 41 | 186 | 0.0 | 1.0 | 0.00 | 0.00 | 0.00 | 62 | 1002.3 |
| 20260503041004 | 41 | 190 | 1.0 | 2.0 | 0.00 | 0.00 | 0.00 | 62 | 1002.3 |
| 20260503040504 | 41 | 184 | 0.0 | 0.0 | 0.00 | 0.00 | 0.00 | 63 | 1002.2 |
| 20260503035504 | 41 | 184 | 0.0 | 0.0 | 0.00 | 0.00 | 0.00 | 62 | 1002.2 |
| 20260503035005 | 41 | 184 | 0.0 | 0.0 | 0.00 | 0.00 | 0.00 | 62 | 1002.5 |
| 20260503034505 | 41 | 184 | 0.0 | 0.0 | 0.00 | 0.00 | 0.00 | 61 | 1002.7 |
| 20260503033005 | 41 | 184 | 0.0 | 0.0 | 0.00 | 0.00 | 0.00 | 62 | 1002.4 |
| 20260503032004 | 41 | 182 | 0.0 | 0.0 | 0.00 | 0.00 | 0.00 | 62 | 1002.5 |
| 20260503031505 | 41 | 183 | 0.0 | 0.0 | 0.00 | 0.00 | 0.00 | 62 | 1002.7 |
| 20260503031004 | 40 | 182 | 0.0 | 0.0 | 0.00 | 0.00 | 0.00 | 63 | 1002.7 |
| 20260503030505 | 40 | 183 | 0.0 | 0.0 | 0.00 | 0.00 | 0.00 | 64 | 1002.8 |
| 20260503025005 | 39 | 183 | 0.0 | 0.0 | 0.00 | 0.00 | 0.00 | 66 | 1002.8 |
| 20260503024504 | 39 | 183 | 0.0 | 0.0 | 0.00 | 0.00 | 0.00 | 66 | 1002.6 |
| 20260503023505 | 40 | 183 | 0.0 | 0.0 | 0.00 | 0.00 | 0.00 | 65 | 1002.7 |
| 20260503021504 | 40 | 183 | 0.0 | 0.0 | 0.00 | 0.00 | 0.00 | 62 | 1003.0 |
| 20260503021005 | 41 | 183 | 0.0 | 0.0 | 0.00 | 0.00 | 0.00 | 61 | 1002.9 |
| 20260503020504 | 41 | 183 | 0.0 | 0.0 | 0.00 | 0.00 | 0.00 | 60 | 1003.0 |
| 20260503015504 | 42 | 183 | 0.0 | 0.0 | 0.00 | 0.00 | 0.00 | 61 | 1002.8 |
| 20260503015004 | 42 | 183 | 0.0 | 0.0 | 0.00 | 0.00 | 0.00 | 60 | 1002.8 |
| 20260503014504 | 42 | 183 | 0.0 | 0.0 | 0.00 | 0.00 | 0.00 | 60 | 1002.9 |
| 20260503014005 | 42 | 183 | 0.0 | 0.0 | 0.00 | 0.00 | 0.00 | 59 | 1002.7 |
| 20260503013504 | 42 | 183 | 0.0 | 0.0 | 0.00 | 0.00 | 0.00 | 58 | 1002.6 |
| 20260503013004 | 42 | 183 | 0.0 | 0.0 | 0.00 | 0.00 | 0.00 | 57 | 1002.7 |
| 20260503012505 | 42 | 183 | 0.0 | 0.0 | 0.00 | 0.00 | 0.00 | 56 | 1002.8 |
| 20260503012004 | 43 | 183 | 0.0 | 0.0 | 0.00 | 0.00 | 0.00 | 56 | 1002.7 |
| 20260503011504 | 44 | 183 | 0.0 | 0.0 | 0.00 | 0.00 | 0.00 | 54 | 1002.7 |
| 20260503011005 | 44 | 183 | 0.0 | 0.0 | 0.00 | 0.00 | 0.00 | 54 | 1002.7 |
| 20260503010504 | 44 | 183 | 0.0 | 0.0 | 0.00 | 0.00 | 0.00 | 52 | 1002.8 |
| 20260503010004 | 45 | 196 | 0.0 | 0.0 | 0.00 | 0.00 | 0.00 | 51 | 1002.7 |
| 20260503005004 | 45 | 178 | 0.0 | 0.0 | 0.00 | 0.00 | 0.00 | 50 | 1002.8 |
| 20260503004505 | 45 | 178 | 0.0 | 0.0 | 0.00 | 0.00 | 0.00 | 50 | 1002.6 |
| 20260503004005 | 46 | 178 | 0.0 | 0.0 | 0.00 | 0.00 | 0.00 | 48 | 1002.6 |
| 20260503003504 | 46 | 182 | 0.0 | 0.0 | 0.00 | 0.00 | 0.00 | 47 | 1002.7 |
| 20260503003004 | 46 | 180 | 0.0 | 1.0 | 0.00 | 0.00 | 0.00 | 47 | 1002.7 |
| 20260503002505 | 47 | 209 | 1.0 | 2.0 | 0.00 | 0.00 | 0.00 | 47 | 1002.7 |
| 20260503001504 | 47 | 228 | 2.0 | 2.0 | 0.00 | 0.00 | 0.00 | 46 | 1002.7 |
| 20260503001005 | 47 | 215 | 1.0 | 1.0 | 0.00 | 0.00 | 0.00 | 45 | 1002.7 |
| 20260503000504 | 47 | 237 | 1.0 | 1.0 | 0.00 | 0.00 | 0.00 | 45 | 1002.7 |
| 20260503000004 | 47 | 226 | 2.0 | 2.0 | 0.00 | 0.00 | 0.00 | 45 | 1002.5 |
| 20260502235505 | 47 | 331 | 2.0 | 2.0 | 0.00 | 0.00 | 0.00 | 45 | 1002.6 |
| 20260502235005 | 47 | 311 | 1.0 | 2.0 | 0.00 | 0.00 | 0.00 | 44 | 1002.4 |
| 20260502234504 | 47 | 225 | 1.0 | 1.0 | 0.00 | 0.00 | 0.00 | 45 | 1002.5 |
| 20260502234004 | 48 | 227 | 2.0 | 2.0 | 0.00 | 0.00 | 0.00 | 45 | 1002.6 |
| 20260502233505 | 48 | 31 | 3.0 | 3.0 | 0.00 | 0.00 | 0.00 | 44 | 1002.5 |
| 20260502233005 | 48 | 305 | 3.0 | 3.0 | 0.00 | 0.00 | 0.00 | 45 | 1002.5 |
| 20260502232505 | 48 | 206 | 2.0 | 2.0 | 0.00 | 0.00 | 0.00 | 45 | 1002.6 |
| 20260502232004 | 48 | 236 | 1.0 | 1.0 | 0.00 | 0.00 | 0.00 | 44 | 1002.7 |
| 20260502231505 | 48 | 28 | 1.0 | 2.0 | 0.00 | 0.00 | 0.00 | 44 | 1002.6 |
| 20260502231004 | 48 | 303 | 3.0 | 3.0 | 0.00 | 0.00 | 0.00 | 44 | 1002.5 |
| 20260502230504 | 48 | 292 | 1.0 | 1.0 | 0.00 | 0.00 | 0.00 | 43 | 1002.5 |
| 20260502230005 | 48 | 237 | 0.0 | 1.0 | 0.00 | 0.00 | 0.00 | 43 | 1002.6 |
| 20260502225505 | 48 | 248 | 1.0 | 1.0 | 0.00 | 0.00 | 0.00 | 44 | 1002.7 |
| 20260502225005 | 48 | 262 | 2.0 | 2.0 | 0.00 | 0.00 | 0.00 | 44 | 1002.5 |
| 20260502224504 | 48 | 322 | 2.0 | 5.0 | 0.00 | 0.00 | 0.00 | 43 | 1002.4 |
| 20260502224004 | 48 | 329 | 2.0 | 2.0 | 0.00 | 0.00 | 0.00 | 44 | 1002.7 |
| 20260502223004 | 48 | 234 | 2.0 | 2.0 | 0.00 | 0.00 | 0.00 | 43 | 1002.8 |
| 20260502222505 | 48 | 357 | 0.0 | 0.0 | 0.00 | 0.00 | 0.00 | 44 | 1002.6 |
| 20260502222004 | 48 | 310 | 1.0 | 2.0 | 0.00 | 0.00 | 0.00 | 44 | 1002.8 |
| 20260502221505 | 48 | 251 | 2.0 | 2.0 | 0.00 | 0.00 | 0.00 | 43 | 1002.6 |
| 20260502221005 | 48 | 231 | 2.0 | 2.0 | 0.00 | 0.00 | 0.00 | 44 | 1002.7 |
| 20260502220004 | 48 | 214 | 1.0 | 2.0 | 0.00 | 0.00 | 0.00 | 45 | 1002.5 |
| 20260502215504 | 48 | 282 | 1.0 | 2.0 | 0.00 | 0.00 | 0.00 | 45 | 1002.8 |
| 20260502215005 | 48 | 248 | 1.0 | 1.0 | 0.00 | 0.00 | 0.00 | 44 | 1002.9 |
| 20260502214504 | 48 | 248 | 1.0 | 1.0 | 0.00 | 0.00 | 0.00 | 43 | 1002.8 |
| 20260502214004 | 48 | 306 | 3.0 | 3.0 | 0.00 | 0.00 | 0.00 | 43 | 1003.0 |
| 20260502213505 | 48 | 273 | 2.0 | 2.0 | 0.00 | 0.00 | 0.00 | 44 | 1002.7 |
| 20260502213005 | 48 | 211 | 0.0 | 1.0 | 0.00 | 0.00 | 0.00 | 43 | 1002.7 |
| 20260502212504 | 48 | 284 | 3.0 | 3.0 | 0.00 | 0.00 | 0.00 | 43 | 1002.9 |
| 20260502212004 | 48 | 298 | 5.0 | 7.0 | 0.00 | 0.00 | 0.00 | 43 | 1002.8 |
| 20260502211505 | 48 | 15 | 2.0 | 2.0 | 0.00 | 0.00 | 0.00 | 42 | 1002.7 |
| 20260502211004 | 48 | 274 | 2.0 | 2.0 | 0.00 | 0.00 | 0.00 | 43 | 1002.8 |
| 20260502210504 | 48 | 270 | 3.0 | 5.0 | 0.00 | 0.00 | 0.00 | 42 | 1002.8 |
| 20260502210004 | 48 | 344 | 3.0 | 3.0 | 0.00 | 0.00 | 0.00 | 43 | 1002.9 |
| 20260502205505 | 48 | 281 | 3.0 | 3.0 | 0.00 | 0.00 | 0.00 | 42 | 1002.8 |
| 20260502205005 | 48 | 222 | 2.0 | 2.0 | 0.00 | 0.00 | 0.00 | 43 | 1002.6 |
| 20260502204504 | 48 | 281 | 2.0 | 3.0 | 0.00 | 0.00 | 0.00 | 42 | 1003.0 |
| 20260502204004 | 47 | 234 | 1.0 | 1.0 | 0.00 | 0.00 | 0.00 | 44 | 1003.2 |
| 20260502203504 | 48 | 317 | 3.0 | 3.0 | 0.00 | 0.00 | 0.00 | 43 | 1003.0 |
| 20260502202505 | 48 | 244 | 3.0 | 5.0 | 0.00 | 0.00 | 0.00 | 43 | 1003.0 |
| 20260502202004 | 48 | 307 | 2.0 | 2.0 | 0.00 | 0.00 | 0.00 | 44 | 1003.2 |
| 20260502201004 | 48 | 297 | 2.0 | 3.0 | 0.00 | 0.00 | 0.00 | 42 | 1003.3 |
| 20260502200504 | 48 | 304 | 3.0 | 3.0 | 0.00 | 0.00 | 0.00 | 43 | 1003.4 |
| 20260502195505 | 49 | 331 | 4.0 | 6.0 | 0.00 | 0.00 | 0.00 | 41 | 1003.3 |
| 20260502195004 | 49 | 86 | 1.0 | 2.0 | 0.00 | 0.00 | 0.00 | 41 | 1003.4 |
| 20260502194004 | 48 | 262 | 3.0 | 5.0 | 0.00 | 0.00 | 0.00 | 42 | 1003.7 |
| 20260502193504 | 48 | 176 | 1.0 | 2.0 | 0.00 | 0.00 | 0.00 | 42 | 1003.6 |
| 20260502192505 | 47 | 330 | 6.0 | 8.0 | 0.00 | 0.00 | 0.00 | 42 | 1003.8 |
| 20260502192005 | 48 | 230 | 3.0 | 5.0 | 0.00 | 0.00 | 0.00 | 43 | 1003.8 |
| 20260502191504 | 47 | 243 | 3.0 | 3.0 | 0.00 | 0.00 | 0.00 | 43 | 1003.9 |
| 20260502191004 | 48 | 235 | 1.0 | 1.0 | 0.00 | 0.00 | 0.00 | 42 | 1003.9 |
| 20260502190505 | 48 | 319 | 3.0 | 3.0 | 0.00 | 0.00 | 0.00 | 42 | 1003.9 |
| 20260502190005 | 47 | 225 | 1.0 | 1.0 | 0.00 | 0.00 | 0.00 | 43 | 1004.1 |
| 20260502185504 | 47 | 268 | 5.0 | 6.0 | 0.00 | 0.00 | 0.00 | 42 | 1004.1 |